Flag for Fiji Weather past 2 weeks in Lautoka, Fiji

Now
81 °F

Passing clouds.


Feels Like: 82 °F
Forecast: 72 / 84 °F
Wind: 7 mph from Northwest

Location: Nandi

Current Time: May 23, 2015 at 5:13:54 PM

Latest Report: May 23, 2015 at 5:00 PM


Visibility: N/A

Pressure: 29.89 "Hg

Humidity: 58%

Dew point: 64 °F

Location of LautokaLocation

Historic Weather in Lautoka — Graph

°F

Lautoka temperature yesterday

Maximum temperature yesterday: 84 °F (at 12:00 PM)
Minimum temperature yesterday: 66 °F (at 5:00 AM)
Average temperature yesterday: 75 °F

Past Weeks' High & Low Weather Summary

 TemperatureHumidityPressure
High88 °F (May 12, 2:00 PM)100% (May 10, 4:00 AM)30.07 "Hg (May 10, 4:00 AM)
Low59 °F (May 19, 6:00 AM)45% (May 18, 1:00 PM)29.74 "Hg (May 8, 4:00 PM)
Average76 °F76%29.92 "Hg
* Reported May 8 4:00 PM — May 23 4:00 PM, Lautoka, Weather by CustomWeather, © 2015

Note: Actual official high and low records may vary slightly from our data, if they occured in-between our weather recording intervals... More about our weather records

Advertising

Lautoka weather history for previous 24 hours

 ConditionsComfort  
Time TempWeatherWind HumidityBarometerVisibility
4:00 PM
Sat, May 23
81 °FPassing clouds.10 mph58%29.89 "HgN/A
3:00 PM81 °FPassing clouds.13 mph58%29.89 "HgN/A
2:00 PM84 °FPassing clouds.14 mph55%29.89 "HgN/A
1:00 PM84 °FPassing clouds.8 mph48%29.92 "HgN/A
12:00 PM82 °FPassing clouds.10 mph51%29.95 "HgN/A
11:00 AM82 °FPassing clouds.3 mph48%29.98 "HgN/A
10:00 AM79 °FPassing clouds.7 mph51%30.01 "HgN/A
9:00 AM73 °FPassing clouds.9 mph69%30.01 "HgN/A
8:00 AM68 °FPassing clouds.3 mph78%30.01 "HgN/A
7:00 AM63 °FPassing clouds.5 mph83%30.01 "HgN/A
6:00 AM63 °FPassing clouds.6 mph88%29.98 "HgN/A
5:00 AM63 °FPassing clouds.7 mph94%29.98 "HgN/A
4:00 AM64 °FPassing clouds.2 mph88%29.98 "HgN/A
3:00 AM64 °FPassing clouds.7 mph88%29.98 "HgN/A
2:00 AM66 °FPassing clouds.7 mph83%29.98 "HgN/A
1:00 AM66 °FPassing clouds.9 mph83%29.98 "HgN/A
12:00 AM68 °FPassing clouds.7 mph78%29.98 "HgN/A
11:00 PM
Fri, May 22
70 °FPassing clouds.5 mph73%29.98 "HgN/A
10:00 PM70 °FPassing clouds.10 mph78%29.98 "HgN/A
9:00 PM70 °FPassing clouds.9 mph78%29.98 "HgN/A
8:00 PM73 °FPassing clouds.9 mph69%29.98 "HgN/A
7:00 PM75 °FPassing clouds.10 mph65%29.98 "HgN/A
6:00 PM79 °FPartly cloudy.3 mph70%29.95 "HgN/A
5:00 PM81 °FPartly sunny.10 mph66%29.92 "HgN/A
Weather by CustomWeather, © 2015

See weather overviewHow to use our weather pages